Flag for New Zealand Weather past 2 weeks in Wellington, New Zealand

Now
52 °F

Broken clouds.


Feels Like: 45 °F
Forecast: 51 / 55 °F
Wind: 25 mph from North

Location: Wellington Airport

Current Time: Jul 31, 2015 at 1:46:56 PM

Latest Report: Jul 31, 2015 at 1:00 PM


Visibility: N/A

Pressure: 30.12 "Hg

Humidity: 77%

Dew point: 45 °F

Location of WellingtonLocation

Historic Weather in Wellington — Graph

°F

Wellington temperature yesterday

Maximum temperature yesterday: 50 °F (at 12:00 PM)
Minimum temperature yesterday: 45 °F (at 2:00 AM)
Average temperature yesterday: 47 °F

Past Weeks' High & Low Weather Summary

 TemperatureHumidityPressure
High59 °F (Jul 16, 12:00 PM)100% (Jul 17, 5:00 AM)30.57 "Hg (Jul 17, 5:00 AM)
Low37 °F (Jul 25, 5:30 AM)41% (Jul 21, 2:00 PM)29.18 "Hg (Jul 18, 5:00 PM)
Average50 °F76%30.05 "Hg
* Reported Jul 16 12:00 Noon — Jul 31 12:30 PM, Wellington, Weather by CustomWeather, © 2015

Note: Actual official high and low records may vary slightly from our data, if they occured in-between our weather recording intervals... More about our weather records

Advertising

Wellington weather history for previous 24 hours

 ConditionsComfort  
Time TempWeatherWind HumidityBarometerVisibility
12:30 PM
Fri, Jul 31
52 °FPartly sunny.24 mph77%30.12 "HgN/A
12:00 PM52 °FMostly cloudy.22 mph77%30.15 "HgN/A
11:30 AM52 °FBroken clouds.23 mph77%30.15 "HgN/A
11:00 AM52 °FBroken clouds.23 mph77%30.15 "HgN/A
10:30 AM52 °FPartly sunny.23 mph77%30.15 "HgN/A
10:00 AM50 °FPartly sunny.20 mph82%30.15 "HgN/A
9:30 AM50 °FScattered clouds.21 mph82%30.18 "HgN/A
9:00 AM50 °FPartly sunny.20 mph82%30.18 "HgN/A
8:30 AM48 °FBroken clouds.17 mph87%30.18 "HgN/A
8:00 AM48 °FPartly sunny.15 mph87%30.18 "HgN/A
7:30 AM48 °FBroken clouds.14 mph87%30.18 "HgN/A
7:00 AM46 °FBroken clouds.12 mph93%30.18 "HgN/A
6:30 AM46 °FPartly sunny.15 mph93%30.18 "HgN/A
6:00 AM46 °FMostly cloudy.14 mph93%30.15 "HgN/A
5:30 AM46 °FPartly cloudy.14 mph93%30.15 "HgN/A
5:00 AM46 °FPassing clouds.15 mph87%30.15 "HgN/A
4:30 AM46 °FCool.15 mph87%30.15 "HgN/A
4:00 AM46 °FCool.15 mph82%30.18 "HgN/A
3:30 AM46 °FPassing clouds.14 mph82%30.18 "HgN/A
3:00 AM46 °FPassing clouds.12 mph76%30.18 "HgN/A
2:30 AM46 °FPassing clouds.13 mph76%30.18 "HgN/A
2:00 AM46 °FPassing clouds.13 mph76%30.18 "HgN/A
1:30 AM46 °FPassing clouds.12 mph76%30.18 "HgN/A
1:00 AM46 °FPassing clouds.12 mph76%30.21 "HgN/A
12:30 AM46 °FPassing clouds.12 mph76%30.21 "HgN/A
12:00 AM46 °FPartly cloudy.13 mph76%30.21 "HgN/A
11:30 PM
Thu, Jul 30
46 °FPassing clouds.13 mph76%30.21 "HgN/A
11:00 PM45 °FPassing clouds.12 mph81%30.21 "HgN/A
10:30 PM45 °FPassing clouds.12 mph76%30.21 "HgN/A
10:00 PM45 °FPassing clouds.12 mph81%30.21 "HgN/A
9:30 PM45 °FPassing clouds.13 mph76%30.21 "HgN/A
9:00 PM45 °FQuite cool.10 mph76%30.21 "HgN/A
8:30 PM45 °FQuite cool.9 mph76%30.21 "HgN/A
8:00 PM45 °FQuite cool.9 mph76%30.21 "HgN/A
7:30 PM45 °FQuite cool.9 mph76%30.21 "HgN/A
7:00 PM45 °FQuite cool.8 mph76%30.21 "HgN/A
6:30 PM45 °FQuite cool.7 mph71%30.21 "HgN/A
6:00 PM45 °FQuite cool.6 mph71%30.21 "HgN/A
5:30 PM46 °FCool.5 mph71%30.21 "HgN/A
5:00 PM48 °FCool.3 mph62%30.21 "HgN/A
4:30 PM48 °FCool.2 mph58%30.21 "HgN/A
3:30 PM48 °FCool.5 mph58%30.21 "HgN/A
3:00 PM50 °FCool.5 mph58%30.21 "HgN/A
2:30 PM50 °FCool.5 mph58%30.21 "HgN/A
2:00 PM48 °FCool.7 mph62%30.21 "HgN/A
1:30 PM50 °FCool.10 mph62%30.24 "HgN/A
1:00 PM50 °FCool.12 mph62%30.24 "HgN/A
Weather by CustomWeather, © 2015

See weather overviewHow to use our weather pages